Weather in Roseville

United States     38°47′23″N   121°17′01″W
temp.,
°C
wind,
m/s
gust,
m/s
humid.,
%
clouds,
%
prec.,
mm/h
press.,
hPa
HPBL,
m
7 may, fri
fri723:00+15sse46620 0.0 1016355
02:00+13sse477196 0.0 1015361
05:00+11sse24780 0.0 1016259
08:00+13se23692 0.0 1017438
11:00+20wsw11440 0.0 1017956
14:00+25nw23270 0.0 10151568
17:00+27n35201 0.0 10132288
20:00+22n22201 0.0 101336
8 may, sat
sat823:00+17s01280 0.0 101423
02:00+14n24310 0.0 1014122
05:00+11nnw36340 0.0 1015154
08:00+14nnw47290 0.0 1016284
11:00+24nw68145 0.0 10151004
14:00+29nw67100 0.0 10121561
17:00+30nw68110 0.0 10101579
20:00+25nw410185 0.0 1010447
9 may, sun
sun923:00+19se012536 0.0 101049
02:00+16ne11335 0.0 101156
05:00+13n12395 0.0 101193
08:00+16nnw23365 0.0 1012286
11:00+23nw342529 0.0 1011879
14:00+29nw341671 0.0 10081856
17:00+30nw45135 0.0 10062452
20:00+24nw27190 0.0 1006191
10 may, mon
mon1023:00+19e11260 0.0 100737
02:00+16nne12350 0.0 100859
05:00+13nnw24370 0.0 1009123
08:00+16nnw36340 0.0 1010271
11:00+25nw58200 0.0 10101092
14:00+31nw78100 0.0 10082566
17:00+31nw7890 0.0 10072087
20:00+26nnw612120 0.0 1008576
11 may, tue
tue1123:00+21ne38175 0.0 1009189
02:00+16nne12235 0.0 101045
05:00+14ne11264 0.0 101132
08:00+18nne12235 0.0 1012187
11:00+26w21155 0.0 1012766
14:00+32ssw12105 0.0 10111422
17:00+33sse1181 0.0 10091744
20:00+27sse35140 0.0 1010186